Time,TemperatureF,DewpointF,PressureIn,WindDirection,WindDirectionDegrees,WindSpeedMPH,WindSpeedGustMPH,Humidity,HourlyPrecipIn,Conditions,Clouds,dailyrainin,SoftwareType,DateUTC
2013-08-05 00:02:00,71.0,69.0,-100.00,WSW,240,6.0,7.0,93,0.00,,,-99.99,,2013-08-05 05:02:00,
2013-08-05 00:12:00,71.0,68.0,-100.00,SW,235,6.0,9.0,90,0.00,,,-99.99,,2013-08-05 05:12:00,
2013-08-05 00:22:00,71.0,68.0,-100.00,SW,235,6.0,9.0,90,0.00,,,-99.99,,2013-08-05 05:22:00,
2013-08-05 00:32:00,71.0,68.0,-100.00,WSW,240,6.0,9.0,90,0.00,,,-99.99,,2013-08-05 05:32:00,
2013-08-05 00:43:00,70.0,67.0,-100.00,WSW,240,7.0,9.0,91,0.00,,,-99.99,,2013-08-05 05:43:00,
2013-08-05 00:53:00,69.0,67.0,-100.00,SW,235,6.0,9.0,93,0.00,,,-99.99,,2013-08-05 05:53:00,
2013-08-05 01:02:00,69.0,67.0,-100.00,WSW,240,4.0,9.0,93,0.00,,,-99.99,,2013-08-05 06:02:00,
2013-08-05 01:12:00,69.0,67.0,-100.00,SW,230,4.0,7.0,94,0.00,,,-99.99,,2013-08-05 06:12:00,
2013-08-05 01:22:00,68.0,67.0,-100.00,SW,235,4.0,6.0,95,0.00,,,-99.99,,2013-08-05 06:22:00,
2013-08-05 01:32:00,67.0,67.0,-100.00,SW,235,4.0,6.0,97,0.00,,,-99.99,,2013-08-05 06:32:00,
2013-08-05 01:42:00,67.0,67.0,-100.00,WSW,250,5.0,7.0,99,0.00,,,-99.99,,2013-08-05 06:42:00,
2013-08-05 01:52:00,66.0,66.0,-100.00,WSW,255,4.0,7.0,99,0.00,,,-99.99,,2013-08-05 06:52:00,
2013-08-05 02:02:00,66.0,66.0,-100.00,WSW,255,5.0,7.0,99,0.00,,,-99.99,,2013-08-05 07:02:00,
2013-08-05 02:12:00,66.0,66.0,-100.00,WSW,250,4.0,6.0,99,0.00,,,-99.99,,2013-08-05 07:12:00,
2013-08-05 02:22:00,66.0,66.0,-100.00,WSW,250,4.0,6.0,99,0.00,,,-99.99,,2013-08-05 07:22:00,
2013-08-05 02:32:00,65.0,65.0,-100.00,WSW,250,5.0,6.0,99,0.00,,,-99.99,,2013-08-05 07:32:00,
2013-08-05 02:43:00,65.0,65.0,-100.00,West,260,3.0,6.0,99,0.00,,,-99.99,,2013-08-05 07:43:00,
2013-08-05 02:53:00,65.0,65.0,-100.00,WSW,245,4.0,5.0,99,0.00,,,-99.99,,2013-08-05 07:53:00,
2013-08-05 03:02:00,65.0,65.0,-100.00,WSW,245,4.0,5.0,99,0.00,,,-99.99,,2013-08-05 08:02:00,
2013-08-05 03:12:00,66.0,66.0,-100.00,SW,220,4.0,7.0,99,0.00,,,-99.99,,2013-08-05 08:12:00,
2013-08-05 03:22:00,66.0,66.0,-100.00,SW,225,4.0,7.0,99,0.00,,,-99.99,,2013-08-05 08:22:00,
2013-08-05 03:34:00,67.0,67.0,-100.00,SW,230,6.0,7.0,99,0.00,,,-99.99,,2013-08-05 08:34:00,
2013-08-05 03:46:00,67.0,67.0,-100.00,WSW,240,6.0,8.0,99,0.00,,,-99.99,,2013-08-05 08:46:00,
2013-08-05 03:53:00,67.0,67.0,-100.00,WSW,245,7.0,10.0,99,0.00,,,-99.99,,2013-08-05 08:53:00,
2013-08-05 04:06:00,67.0,67.0,-100.00,WSW,245,7.0,10.0,99,0.00,,,-99.99,,2013-08-05 09:06:00,
2013-08-05 04:24:00,67.0,67.0,-100.00,WSW,240,6.0,9.0,99,0.00,,,-99.99,,2013-08-05 09:24:00,
2013-08-05 04:37:00,67.0,67.0,-100.00,WSW,245,4.0,7.0,99,0.00,,,-99.99,,2013-08-05 09:37:00,
2013-08-05 04:46:00,67.0,67.0,-100.00,SW,235,5.0,6.0,99,0.00,,,-99.99,,2013-08-05 09:46:00,
2013-08-05 04:53:00,67.0,67.0,-100.00,WSW,245,6.0,10.0,99,0.00,,,-99.99,,2013-08-05 09:53:00,
2013-08-05 05:06:00,67.0,67.0,-100.00,WSW,245,6.0,10.0,99,0.00,,,-99.99,,2013-08-05 10:06:00,
2013-08-05 05:13:00,67.0,67.0,-100.00,WSW,245,7.0,9.0,99,0.00,,,-99.99,,2013-08-05 10:13:00,
2013-08-05 05:24:00,67.0,67.0,-100.00,WSW,245,7.0,9.0,99,0.00,,,-99.99,,2013-08-05 10:24:00,
2013-08-05 05:32:00,67.0,67.0,-100.00,WSW,240,6.0,10.0,99,0.00,,,-99.99,,2013-08-05 10:32:00,
2013-08-05 05:52:00,67.0,67.0,-100.00,WSW,245,8.0,12.0,99,0.00,,,-99.99,,2013-08-05 10:52:00,
2013-08-05 06:05:00,67.0,67.0,-100.00,WSW,250,8.0,12.0,99,0.00,,,-99.99,,2013-08-05 11:05:00,
2013-08-05 06:14:00,67.0,67.0,-100.00,WSW,255,7.0,12.0,99,0.00,,,-99.99,,2013-08-05 11:14:00,
2013-08-05 06:24:00,67.0,67.0,-100.00,WSW,255,7.0,12.0,99,0.00,,,-99.99,,2013-08-05 11:24:00,
2013-08-05 06:35:00,67.0,67.0,-100.00,WSW,245,7.0,11.0,99,0.00,,,-99.99,,2013-08-05 11:35:00,
2013-08-05 07:05:00,67.0,67.0,-100.00,WSW,255,5.0,10.0,99,0.00,,,-99.99,,2013-08-05 12:05:00,
2013-08-05 07:15:00,67.0,67.0,-100.00,WSW,245,7.0,9.0,99,0.00,,,-99.99,,2013-08-05 12:15:00,
2013-08-05 07:33:00,67.0,67.0,-100.00,WSW,250,6.0,9.0,99,0.00,,,-99.99,,2013-08-05 12:33:00,
2013-08-05 07:46:00,67.0,67.0,-100.00,WSW,250,6.0,10.0,99,0.00,,,-99.99,,2013-08-05 12:46:00,
2013-08-05 07:54:00,68.0,68.0,-100.00,WSW,255,5.0,9.0,99,0.00,,,-99.99,,2013-08-05 12:54:00,
2013-08-05 08:02:00,68.0,68.0,-100.00,West,270,6.0,11.0,99,0.00,,,-99.99,,2013-08-05 13:02:00,
2013-08-05 08:13:00,68.0,68.0,-100.00,WSW,255,6.0,10.0,99,0.00,,,-99.99,,2013-08-05 13:13:00,
2013-08-05 08:43:00,68.0,68.0,-100.00,WSW,255,4.0,11.0,99,0.00,,,-99.99,,2013-08-05 13:43:00,
2013-08-05 08:54:00,68.0,68.0,-100.00,WSW,255,6.0,9.0,99,0.00,,,-99.99,,2013-08-05 13:54:00,
2013-08-05 09:05:00,68.0,68.0,-100.00,WSW,255,4.0,9.0,99,0.00,,,-99.99,,2013-08-05 14:05:00,
2013-08-05 09:15:00,68.0,68.0,-100.00,WSW,255,4.0,6.0,99,0.00,,,-99.99,,2013-08-05 14:15:00,
2013-08-05 09:35:00,69.0,69.0,-100.00,SW,235,2.0,4.0,99,0.00,,,-99.99,,2013-08-05 14:35:00,
2013-08-05 09:44:00,68.0,68.0,-100.00,North,10,14.0,20.0,99,9.04,,,-99.99,,2013-08-05 14:44:00,
2013-08-05 10:13:00,67.0,67.0,-100.00,ESE,105,4.0,12.0,99,0.00,,,-99.99,,2013-08-05 15:13:00,
2013-08-05 10:34:00,67.0,67.0,-100.00,SW,235,11.0,15.0,99,0.00,,,-99.99,,2013-08-05 15:34:00,
2013-08-05 10:44:00,68.0,68.0,-100.00,SW,230,11.0,19.0,99,0.00,,,-99.99,,2013-08-05 15:44:00,
2013-08-05 10:54:00,68.0,68.0,-100.00,SW,235,11.0,16.0,99,0.00,,,-99.99,,2013-08-05 15:54:00,
2013-08-05 11:44:00,67.0,67.0,-100.00,NNW,335,10.0,19.0,99,0.00,,,-99.99,,2013-08-05 16:44:00,
2013-08-05 11:54:00,68.0,67.0,-100.00,NW,310,4.0,12.0,99,0.00,,,-99.99,,2013-08-05 16:54:00,
2013-08-05 12:34:00,68.0,68.0,-100.00,SW,215,3.0,9.0,98,0.00,,,-99.99,,2013-08-05 17:34:00,
2013-08-05 12:45:00,69.0,68.0,-100.00,SW,225,7.0,11.0,96,0.00,,,-99.99,,2013-08-05 17:45:00,
2013-08-05 12:55:00,71.0,69.0,-100.00,WSW,255,4.0,6.0,90,0.00,,,-99.99,,2013-08-05 17:55:00,
2013-08-05 13:34:00,75.0,69.0,-100.00,NW,325,2.0,8.0,81,0.00,,,-99.99,,2013-08-05 18:34:00,
2013-08-05 13:44:00,75.0,69.0,-100.00,NW,320,5.0,8.0,81,0.00,,,-99.99,,2013-08-05 18:44:00,
2013-08-05 13:53:00,77.0,70.0,-100.00,NW,320,3.0,6.0,76,0.00,,,-99.99,,2013-08-05 18:53:00,
2013-08-05 14:14:00,78.0,68.0,-100.00,WNW,295,4.0,7.0,70,0.00,,,-99.99,,2013-08-05 19:14:00,
2013-08-05 14:35:00,79.0,68.0,-100.00,NNW,330,5.0,7.0,69,0.00,,,-99.99,,2013-08-05 19:35:00,
2013-08-05 14:47:00,80.0,68.0,-100.00,NW,315,7.0,11.0,68,0.00,,,-99.99,,2013-08-05 19:47:00,
2013-08-05 15:15:00,81.0,68.0,-100.00,NW,310,7.0,12.0,64,0.00,,,-99.99,,2013-08-05 20:15:00,
2013-08-05 15:34:00,81.0,67.0,-100.00,NNW,330,10.0,12.0,60,0.00,,,-99.99,,2013-08-05 20:34:00,
2013-08-05 15:47:00,81.0,67.0,-100.00,NNW,335,7.0,12.0,61,0.00,,,-99.99,,2013-08-05 20:47:00,
2013-08-05 15:55:00,82.0,67.0,-100.00,NW,320,8.0,12.0,60,0.00,,,-99.99,,2013-08-05 20:55:00,
2013-08-05 16:15:00,82.0,67.0,-100.00,NNW,330,7.0,12.0,60,0.00,,,-99.99,,2013-08-05 21:15:00,
2013-08-05 16:33:00,82.0,67.0,-100.00,NNW,330,5.0,11.0,61,0.00,,,-99.99,,2013-08-05 21:33:00,
2013-08-05 16:45:00,82.0,68.0,-100.00,NNW,345,7.0,11.0,63,0.00,,,-99.99,,2013-08-05 21:45:00,
2013-08-05 16:53:00,82.0,68.0,-100.00,NW,325,6.0,8.0,62,0.00,,,-99.99,,2013-08-05 21:53:00,
2013-08-05 17:13:00,82.0,70.0,-100.00,NNW,345,6.0,7.0,65,0.00,,,-99.99,,2013-08-05 22:13:00,
2013-08-05 17:35:00,83.0,69.0,-100.00,NNE,25,3.0,8.0,63,0.00,,,-99.99,,2013-08-05 22:35:00,
2013-08-05 17:43:00,84.0,70.0,-100.00,NW,320,4.0,6.0,63,0.00,,,-99.99,,2013-08-05 22:43:00,
2013-08-05 17:53:00,84.0,70.0,-100.00,North,0,3.0,6.0,62,0.00,,,-99.99,,2013-08-05 22:53:00,
2013-08-05 18:14:00,82.0,69.0,-100.00,NNW,330,6.0,7.0,64,0.00,,,-99.99,,2013-08-05 23:14:00,
2013-08-05 18:33:00,84.0,69.0,-100.00,NW,315,2.0,4.0,61,0.00,,,-99.99,,2013-08-05 23:33:00,
2013-08-05 18:45:00,83.0,69.0,-100.00,NW,320,3.0,5.0,62,0.00,,,-99.99,,2013-08-05 23:45:00,
2013-08-05 19:15:00,83.0,69.0,-100.00,NNW,335,3.0,4.0,64,0.00,,,-99.99,,2013-08-06 00:15:00,
2013-08-05 19:34:00,83.0,70.0,-100.00,North,0,2.0,4.0,66,0.00,,,-99.99,,2013-08-06 00:34:00,
2013-08-05 19:45:00,82.0,71.0,-100.00,WNW,300,1.0,4.0,67,0.00,,,-99.99,,2013-08-06 00:45:00,
2013-08-05 19:54:00,83.0,71.0,-100.00,WNW,300,1.0,4.0,68,0.00,,,-99.99,,2013-08-06 00:54:00,
2013-08-05 20:14:00,82.0,71.0,-100.00,WNW,290,1.0,3.0,70,0.00,,,-99.99,,2013-08-06 01:14:00,
2013-08-05 20:36:00,81.0,71.0,-100.00,WNW,290,2.0,3.0,72,0.00,,,-99.99,,2013-08-06 01:36:00,
2013-08-05 21:14:00,74.0,72.0,-100.00,WSW,240,2.0,2.0,94,0.00,,,-99.99,,2013-08-06 02:14:00,
2013-08-05 21:32:00,73.0,72.0,-100.00,SW,235,0.0,2.0,95,0.00,,,-99.99,,2013-08-06 02:32:00,
2013-08-05 21:52:00,71.0,71.0,-100.00,NNE,30,1.0,2.0,99,0.00,,,-99.99,,2013-08-06 02:52:00,
2013-08-05 22:35:00,69.0,69.0,-100.00,WSW,250,0.0,0.0,99,0.00,,,-99.99,,2013-08-06 03:35:00,
2013-08-05 22:45:00,68.0,68.0,-100.00,NW,325,0.0,1.0,99,0.00,,,-99.99,,2013-08-06 03:45:00,
2013-08-05 22:52:00,68.0,68.0,-100.00,NNE,30,2.0,2.0,99,0.00,,,-99.99,,2013-08-06 03:52:00,
2013-08-05 23:11:00,67.0,67.0,-100.00,NNE,20,3.0,4.0,99,0.00,,,-99.99,,2013-08-06 04:11:00,
2013-08-05 23:33:00,66.0,66.0,-100.00,North,0,2.0,3.0,99,0.00,,,-99.99,,2013-08-06 04:33:00,
2013-08-05 23:44:00,66.0,66.0,-100.00,North,10,1.0,2.0,99,0.00,,,-99.99,,2013-08-06 04:44:00,